Content
SEND FEEDBACK

United States of America Flag

WIBAUX, MONTANA


Home > North America > United States > Montana
Elevation: 2732 feet     Latitude: 46 59N     Longitude: 104 09W

WEATHER
 
SELECT A DAY
Number of Records: 88,754;   Date Range: 11/18/10 - 3/22/16
 
SHARE

PRINT THIS DATA

[ ← Previous Day ]
WEATHER ALMANAC - FEBRUARY 14, 2013
[ Next Day → ]
[ °C ]   °F
Weather ElementAverageHighLow
Temperature23.4 °F28.4 °F (12:35 am)15.8 °F (11:55 pm)
Dewpoint19.2 °F24.8 °F (2:55 am)10.4 °F (11:55 pm)
Humidity84.5 %93 % (2:55 am)74 % (12:35 am)
Barometer30.15 in30.27 in (11:55 pm)29.88 in (3:15 am)
Wind Speed18.9 mph35.7 mph (3:35 am)
Wind Gust46 mph (3:35 am)
Weather ElementAverage
Visibility7.7 mi
Wind DirectionWNW (302.7 °)

Weather ElementTotal
Precipitation2.54 in
Heating Degree Days42.9 (Base 65)
Averaged from 71 records on February 14, 2013
WEATHER CONDITIONS BREAKOUT
WIND DIRECTION BREAKOUT
WEATHER BY HOUR - FEBRUARY 14, 2013
[ °C ]   °F
Local TimeTemperatureDewpointHumidityBarometerVisibilityWind DirectionWind SpeedGust SpeedPrecipitationEventsConditions
12:35 AM28.4 °F21.2 °F74 %29.89 in10.0 miWNW (290°)24.2 mph31.1 mphOvercast
12:55 AM28.4 °F23.0 °F80 %29.89 in10.0 miWNW (300°)24.2 mph36.8 mphOvercast
1:15 AM28.4 °F23.0 °F80 %29.89 in10.0 miWNW (300°)26.5 mph38.0 mphOvercast
1:35 AM26.6 °F23.0 °F86 %29.90 in10.0 miWNW (300°)27.6 mph40.3 mphOvercast
1:55 AM26.6 °F23.0 °F86 %29.90 in10.0 miWNW (290°)24.2 mph35.7 mphSnowLight Snow
2:15 AM26.6 °F23.0 °F86 %29.90 in10.0 miWNW (300°)27.6 mph34.5 mphRainLight Rain
2:35 AM26.6 °F23.0 °F86 %29.89 in10.0 miWNW (290°)29.9 mph33.4 mphSnowLight Snow
2:55 AM26.6 °F24.8 °F93 %29.89 in10.0 miWNW (290°)26.5 mph33.4 mphOvercast
3:15 AM28.4 °F24.8 °F86 %29.88 in10.0 miWNW (300°)31.1 mph38.0 mphRainLight Rain
3:35 AM28.4 °F24.8 °F86 %29.89 in10.0 miNW (310°)35.7 mph46.0 mphRainLight Rain
3:55 AM26.6 °F23.0 °F86 %29.90 in10.0 miNW (320°)27.6 mph42.6 mphRainLight Rain
4:15 AM26.6 °F23.0 °F86 %29.92 in10.0 miNNW (330°)32.2 mph43.7 mphRainLight Rain
4:35 AM24.8 °F23.0 °F93 %29.95 in5.0 miNNW (340°)29.9 mph46.0 mph0.03 inSnowLight Snow
4:55 AM24.8 °F23.0 °F93 %29.98 in9.0 miNNW (340°)33.4 mph41.4 mph0.04 inRainLight Rain
5:15 AM24.8 °F21.2 °F86 %30.00 in5.0 miNNW (340°)29.9 mph41.4 mphRainLight Rain
5:35 AM24.8 °F23.0 °F93 %30.01 in4.0 miNNW (340°)29.9 mph33.4 mph0.02 inSnowLight Snow
5:55 AM23.0 °F21.2 °F93 %30.04 in8.0 miNNW (340°)29.9 mph39.1 mph0.02 inRainLight Rain
6:15 AM23.0 °F21.2 °F93 %30.06 in10.0 miNNW (340°)27.6 mph36.8 mphOvercast
6:35 AM23.0 °F19.4 °F86 %30.08 in10.0 miNNW (340°)24.2 mph33.4 mphRainLight Rain
6:55 AM23.0 °F19.4 °F86 %30.11 in10.0 miNNW (340°)23.0 mph28.8 mphRainLight Rain
7:15 AM21.2 °F17.6 °F86 %30.13 in10.0 miNorth (350°)24.2 mph34.5 mphOvercast
7:35 AM21.2 °F17.6 °F86 %30.15 in10.0 miNorth (350°)17.3 mph26.5 mphSnowLight Snow
7:55 AM21.2 °F17.6 °F86 %30.17 in10.0 miNorth (350°)18.4 mph23.0 mphMostly Cloudy
8:15 AM21.2 °F17.6 °F86 %30.18 in10.0 miNNW (340°)17.3 mph20.7 mphOvercast
8:35 AM21.2 °F17.6 °F86 %30.19 in2.5 miNNW (330°)18.4 mph21.9 mph0.02 inSnowLight Snow
8:55 AM23.0 °F17.6 °F80 %30.20 in5.0 miNNW (340°)16.1 mph0.05 inSnowLight Snow
9:15 AM23.0 °F17.6 °F80 %30.21 in4.0 miNNW (330°)18.4 mph0.01 inSnowLight Snow
9:35 AM23.0 °F17.6 °F80 %30.21 in6.0 miNNW (330°)12.7 mph0.04 inSnowLight Snow
9:55 AM23.0 °F17.6 °F80 %30.22 in10.0 miNNW (340°)17.3 mph20.7 mph0.05 inSnowLight Snow
10:15 AM23.0 °F17.6 °F80 %30.22 in5.0 miNNW (330°)17.3 mphSnowLight Snow
10:35 AM24.8 °F19.4 °F80 %30.22 in2.5 miNW (320°)17.3 mph0.06 inSnowLight Snow
10:55 AM23.0 °F19.4 °F86 %30.23 in1.8 miNNW (330°)15.0 mph0.15 inSnowLight Snow
11:15 AM24.8 °F19.4 °F80 %30.23 in1.8 miNNW (340°)12.7 mph0.06 inSnowLight Snow
11:35 AM24.8 °F21.2 °F86 %30.23 in1.2 miNW (320°)15.0 mph0.25 inSnowLight Snow
11:55 AM24.8 °F19.4 °F80 %30.23 in2.5 miNW (320°)17.3 mph21.9 mph0.38 inSnowLight Snow
12:15 PM24.8 °F19.4 °F80 %30.24 in2.5 miNNW (330°)16.1 mph23.0 mph0.02 inSnowLight Snow
12:35 PM26.6 °F19.4 °F74 %30.23 in5.0 miNW (320°)21.9 mph25.3 mph0.09 inSnowLight Snow
12:55 PM24.8 °F19.4 °F80 %30.24 in3.0 miNW (320°)15.0 mph21.9 mph0.11 inSnowLight Snow
1:15 PM24.8 °F17.6 °F74 %30.24 in8.0 miNW (320°)17.3 mphMostly Cloudy
1:35 PM24.8 °F19.4 °F80 %30.24 in1.0 miNW (320°)17.3 mph20.7 mph0.11 inSnowLight Snow
1:55 PM24.8 °F19.4 °F80 %30.24 in1.5 miNW (320°)15.0 mph0.26 inSnowLight Snow
2:15 PM24.8 °F19.4 °F80 %30.24 in2.5 miNNW (330°)13.8 mph18.4 mph0.06 inSnowLight Snow
2:35 PM24.8 °F19.4 °F80 %30.25 in9.0 miNW (320°)15.0 mph0.07 inSnowLight Snow
2:55 PM24.8 °F19.4 °F80 %30.24 in8.0 miNW (310°)15.0 mph0.08 inSnowLight Snow
3:15 PM24.8 °F19.4 °F80 %30.25 in6.0 miNW (310°)15.0 mph0.01 inSnowLight Snow
3:35 PM24.8 °F19.4 °F80 %30.25 in9.0 miNW (310°)13.8 mph0.01 inSnowLight Snow
3:55 PM24.8 °F19.4 °F80 %30.25 in10.0 miNW (310°)12.7 mph18.4 mph0.01 inOvercast
4:15 PM24.8 °F21.2 °F86 %30.26 in5.0 miWNW (300°)13.8 mphSnowLight Snow
4:35 PM23.0 °F21.2 °F93 %30.26 in1.2 miNNW (330°)13.8 mph0.25 inSnowLight Snow
4:55 PM23.0 °F21.2 °F93 %30.26 in4.0 miNW (320°)10.4 mph0.26 inSnowLight Snow
5:15 PM23.0 °F19.4 °F86 %30.26 in7.0 miNW (310°)13.8 mphSnowLight Snow
5:35 PM23.0 °F19.4 °F86 %30.25 in10.0 miNorth0.01 inSnowLight Snow
5:55 PM21.2 °F17.6 °F86 %30.26 in10.0 miNorth0.01 inOvercast
6:15 PM23.0 °F19.4 °F86 %30.26 in10.0 miNorthOvercast
6:35 PM23.0 °F19.4 °F86 %30.26 in10.0 miWNW (290°)11.5 mphOvercast
6:55 PM23.0 °F19.4 °F86 %30.26 in10.0 miWNW (290°)10.4 mphOvercast
7:15 PM23.0 °F17.6 °F80 %30.26 in10.0 miWNW (290°)10.4 mphOvercast
7:35 PM19.4 °F17.6 °F93 %30.25 in10.0 miWNW (290°)11.5 mphOvercast
7:55 PM19.4 °F15.8 °F86 %30.25 in10.0 miWest (280°)11.5 mphOvercast
8:15 PM19.4 °F15.8 °F86 %30.24 in10.0 miWest (280°)13.8 mphOvercast
8:35 PM19.4 °F15.8 °F86 %30.24 in10.0 miWest (280°)13.8 mphOvercast
8:55 PM19.4 °F17.6 °F93 %30.25 in10.0 miWNW (290°)13.8 mphSnowLight Snow
9:15 PM19.4 °F17.6 °F93 %30.25 in10.0 miWNW (290°)13.8 mphSnowLight Snow
9:35 PM19.4 °F17.6 °F93 %30.24 in10.0 miWNW (300°)13.8 mphOvercast
9:55 PM19.4 °F17.6 °F93 %30.24 in10.0 miWNW (300°)13.8 mphOvercast
10:15 PM19.4 °F15.8 °F86 %30.24 in10.0 miWNW (300°)13.8 mphOvercast
10:35 PM19.4 °F14.0 °F80 %30.25 in10.0 miNW (310°)21.9 mph29.9 mphOvercast
10:55 PM19.4 °F14.0 °F80 %30.25 in10.0 miNNW (330°)18.4 mph23.0 mphOvercast
11:15 PM19.4 °F12.2 °F74 %30.26 in10.0 miNW (320°)15.0 mphOvercast
11:35 PM17.6 °F12.2 °F79 %30.26 in10.0 miNW (310°)9.2 mphScattered Clouds
11:55 PM15.8 °F10.4 °F79 %30.27 in10.0 miWNW (300°)10.4 mphScattered Clouds
Hourly data recorded from K20U, located miles away from Wibaux, Montana




STORIES FROM OUR PARTNERS